Hourly Data Report for October 13, 2015

All times are specified in Local Standard Time (LST). Add 1 hour to adjust for Daylight Saving Time where and when it is observed.

KUGLUKTUK A
NUNAVUT

67°49'00.000" N
115°08'38.000" W
22.60 m
2300903
71938
YCO

Download Data

Hourly Data (October 2015)
Hourly Data Report for October 13, 2015
Temp Definition
°C
Dew Point Temp Definition
°C
Rel Hum Definition
%
Wind Dir Definition
10's deg

Wind Spd Definition
km/h
Visibility Definition
km
Stn Press Definition
kPa
Hmdx Definition


Wind Chill Definition


Weather Definition


TIME
00:00 Legend Double Dagger -7.9 -10.8 80 11 17 24.1 100.25   -15 LegendNANA
01:00 Legend Double Dagger -7.0 -10.5 76 11 18 24.1 100.20   -14 LegendNANA
02:00 Legend Double Dagger -6.6 -10.5 74 10 23 24.1 100.14   -14 Cloudy
03:00 Legend Double Dagger -6.5 -10.1 76 11 21 24.1 100.10   -14 LegendNANA
04:00 Legend Double Dagger -6.3 -9.9 76 10 21 24.1 100.07   -13 LegendNANA
05:00 Legend Double Dagger -6.2 -10.1 74 10 26 19.3 100.05   -14 Snow
06:00 Legend Double Dagger -6.2 -9.8 76 11 24 19.3 100.07   -14 Snow
07:00 Legend Double Dagger -6.0 -9.6 76 10 23 19.3 100.07   -13 Snow
08:00 Legend Double Dagger -5.8 -9.0 78 10 18 12.9 100.09   -12 Snow
09:00 Legend Double Dagger -5.6 -9.4 75 10 18 19.3 100.13   -12 Snow
10:00 Legend Double Dagger -5.2 -9.5 72 10 17 24.1 100.17   -11 Snow
11:00 Legend Double Dagger -4.9 -9.4 71 11 22 24.1 100.20   -12 Snow
12:00 Legend Double Dagger -4.6 -8.7 73 10 25 24.1 100.22   -12 Snow
13:00 Legend Double Dagger -4.1 -9.0 69 11 19 24.1 100.27   -10 LegendNANA
14:00 Legend Double Dagger -3.7 -9.8 63 8 24 24.1 100.33   -11 Mostly Cloudy
15:00 Legend Double Dagger -4.6 -10.2 65 9 23 24.1 100.41   -12 Snow
16:00 Legend Double Dagger -4.8 -10.4 65 7 21 24.1 100.49   -11 LegendNANA
17:00 Legend Double Dagger -6.1 -9.5 77 12 17 24.1 100.58   -12 Mostly Cloudy
18:00 Legend Double Dagger -8.6 -11.5 80 11 12 24.1 100.66   -14 LegendNANA
19:00 Legend Double Dagger -9.4 -12.1 81 11 13 24.1 100.73   -15 LegendNANA
20:00 Legend Double Dagger -10.0 -12.2 84 11 12 24.1 100.81   -16 Mainly Clear
21:00 Legend Double Dagger -10.4 -12.3 86 11 14 24.1 100.88   -17 LegendNANA
22:00 Legend Double Dagger -10.4 -12.8 83 11 17 24.1 100.94   -18 LegendNANA
23:00 Legend Double Dagger -11.3 -13.2 86 12 13 24.1 101.01   -18 Clear

Notes on Data Quality.

Legend

  • E = Estimated
  • M = Missing
  • NA = Not Available
  • ‡ = Partner data that is not subject to review by the National Climate Archives
Date modified: